Theta_e
334 334 337 326 319 322 322 317 317 319 320 321 322 323 326 331 331 332 336 337 337 336 335 334 333 334 333 334 334 335 334 332
334 333 338 328 320 322 323 318 318 319 321 322 323 325 331 333 334 337 338 337 337 336 335 336 335 335 335 334 333 335 336 334
334 334 338 334 322 321 323 321 319 320 321 323 324 326 329 333 335 338 337 337 336 334 334 335 335 333 333 333 333 334 334 335
335 335 338 342 332 321 323 323 321 321 322 324 326 328 330 333 337 336 337 335 332 331 332 332 334 335 332 333 333 334 333 333
335 336 336 341 341 341 340 328 322 323 324 328 330 331 331 332 334 333 329 327 329 330 329 330 332 333 333 333 332 333 334 331
333 335 335 337 339 341 340 340 332 327 330 332 334 333 331 334 333 333 331 329 327 328 329 329 329 329 331 331 331 332 331 331
333 333 335 337 339 340 338 339 343 339 338 338 337 337 336 333 332 332 330 329 327 325 325 327 328 329 331 330 329 328 329 330
331 333 334 338 339 340 338 339 340 340 338 338 338 337 334 331 332 332 332 331 331 329 328 326 327 328 327 330 329 330 327 328
331 331 334 336 340 341 338 338 339 338 337 335 334 335 334 333 332 332 331 330 330 329 328 327 327 328 328 327 327 331 330 329
331 331 334 337 340 342 341 339 338 335 333 331 330 330 333 332 332 332 332 331 330 329 328 327 327 328 328 329 328 329 330 329
331 331 334 337 340 341 341 339 337 334 330 331 328 330 333 332 332 333 332 331 331 330 329 328 328 327 327 328 329 330 330 328
332 333 333 337 340 342 340 339 335 331 330 328 329 333 333 334 333 333 332 331 331 330 330 329 327 327 327 327 329 330 330 330
332 332 333 334 338 341 338 336 331 330 329 329 331 333 334 334 333 333 333 332 331 330 330 328 327 327 327 327 329 329 329 330
332 333 332 333 337 339 336 333 331 331 329 330 332 332 333 334 333 333 332 330 332 329 329 329 328 327 327 328 329 329 329 329
332 331 331 332 335 336 334 332 330 330 330 331 332 333 333 334 334 333 332 333 327 327 328 328 328 327 327 328 328 329 328 328
330 331 331 333 335 333 332 330 330 329 329 331 332 333 334 334 333 332 332 328 327 328 326 327 327 328 327 328 329 329 329 329
331 331 332 333 334 332 331 330 329 328 330 332 332 334 334 333 332 332 331 330 328 324 326 326 328 327 327 328 328 328 332 329
331 332 332 334 334 332 332 331 332 333 332 332 333 333 334 333 332 332 331 328 327 326 327 328 328 327 328 329 329 329 332 329
332 332 333 333 334 333 332 330 331 330 330 332 333 332 332 332 331 331 329 329 328 328 329 329 328 328 328 329 330 329 329 328
Wind_Speed
22 23 25 30 32 29 26 24 23 20 18 15 14 14 14 13 13 14 14 14 15 16 15 15 15 15 13 13 12 11 11 11
19 23 22 29 32 32 29 27 24 21 19 17 15 14 14 14 15 16 16 16 17 17 17 19 18 18 16 15 14 13 13 12
17 22 20 27 32 34 32 29 26 23 21 19 17 15 14 14 16 16 14 14 15 15 16 17 18 19 16 16 16 15 14 13
17 20 21 21 31 35 33 29 26 24 22 20 18 16 15 14 16 16 14 14 14 13 15 17 17 16 17 15 15 15 14 15
20 20 22 21 24 26 24 29 27 24 22 20 18 17 16 15 16 16 16 15 13 13 13 14 16 17 18 16 15 16 15 16
22 22 22 21 22 24 23 22 27 24 21 19 18 18 17 15 15 14 15 17 18 15 13 14 14 14 16 18 19 17 18 18
22 23 24 23 24 22 22 20 19 20 18 17 17 15 14 15 14 14 15 16 19 19 16 14 13 13 14 15 17 17 20 21
20 25 26 25 25 24 21 19 18 19 17 16 16 15 14 14 13 13 13 13 13 12 13 12 12 13 15 15 12 15 17 21
19 22 27 28 26 24 21 21 19 18 16 14 13 14 14 13 13 13 13 13 13 14 13 12 12 10 12 15 16 15 18 19
22 20 27 27 28 25 24 20 19 18 16 14 13 12 13 14 13 13 13 14 14 14 14 13 13 12 12 13 15 17 16 18
21 18 24 28 28 27 26 22 20 17 15 13 12 12 13 14 13 15 14 14 15 16 15 13 12 12 13 13 13 15 16 16
20 17 25 27 29 28 26 24 19 15 15 13 11 11 13 13 15 16 15 15 16 16 16 14 12 13 13 13 14 14 15 15
20 18 23 26 30 29 26 23 19 16 14 13 11 11 13 14 16 16 15 16 16 16 15 16 14 13 13 14 12 12 13 12
18 17 21 25 28 28 26 23 18 15 14 12 10 11 13 14 16 17 16 17 13 15 16 15 14 13 13 10 10 11 11 10
12 15 18 23 25 23 21 17 14 13 13 11 10 11 12 13 15 16 16 12 13 13 14 14 12 12 11 12 11 11 11 10
9 15 19 22 23 24 21 18 15 14 12 10 10 11 12 13 14 16 13 14 12 15 14 13 12 13 12 11 9 7 9 9
11 15 19 22 24 21 17 14 11 10 8 8 7 9 10 12 13 14 13 11 12 14 13 14 14 12 11 13 10 11 6 6
15 18 22 24 24 19 15 12 9 6 6 8 7 7 6 8 10 10 10 11 12 14 12 14 13 12 12 11 11 5 4 5
16 20 24 24 22 17 14 11 9 6 6 3 5 5 6 7 7 7 9 10 11 12 13 11 10 11 11 11 9 10 7 2
Wind_Direction
185 188 195 204 201 205 208 210 213 214 219 223 228 234 240 244 251 255 253 250 252 254 258 258 258 257 259 255 255 251 250 251
190 192 198 207 203 206 210 213 216 218 222 227 233 238 240 246 250 253 256 260 261 265 262 260 254 253 251 253 256 257 244 247
199 199 200 211 207 208 213 216 218 219 222 228 234 239 247 251 254 254 258 264 269 273 273 272 271 262 249 254 253 257 254 241
212 206 205 207 210 212 217 219 222 224 226 230 234 236 241 248 252 256 254 259 265 271 274 271 269 263 258 256 253 257 254 241
217 213 211 208 207 208 214 221 224 229 230 233 239 242 245 249 254 254 258 271 265 273 275 269 265 262 260 256 253 254 250 244
228 221 215 213 210 207 208 217 222 225 231 236 244 249 253 254 257 254 260 260 268 281 274 271 268 263 260 257 252 247 248 245
241 228 219 214 211 209 206 206 213 216 222 231 238 244 249 251 255 255 261 264 275 284 282 274 265 262 258 249 252 243 240 239
255 232 223 214 207 206 208 202 207 213 219 227 233 239 247 251 254 261 269 271 278 277 278 273 269 256 247 244 252 245 233 231
263 245 222 216 208 202 204 205 208 209 215 223 232 236 239 245 251 259 264 268 267 265 266 264 263 259 255 253 251 243 230 235
263 243 221 212 208 201 195 204 206 208 216 224 233 236 235 245 251 255 259 258 258 257 254 253 259 260 260 251 244 241 233 227
259 241 219 210 207 197 190 195 199 202 214 222 229 234 234 239 248 253 255 257 254 255 251 248 248 258 258 255 242 238 229 223
267 239 215 205 204 197 188 186 193 204 212 222 224 229 234 237 246 251 255 257 255 254 248 243 244 247 252 248 244 228 221 217
261 233 203 203 201 193 184 181 188 201 212 221 220 235 241 244 247 251 248 249 250 247 241 238 233 238 246 245 236 227 220 215
254 221 199 201 195 187 180 177 179 191 208 221 222 240 248 246 246 246 244 251 242 237 235 231 236 240 241 241 233 218 210 212
227 197 198 193 188 179 168 167 180 192 210 222 230 245 249 252 249 242 240 240 240 234 234 233 232 238 242 232 218 209 204 207
188 183 185 182 173 166 165 172 183 200 212 224 237 247 255 257 251 242 230 242 233 229 226 235 232 235 229 220 196 196 200 202
169 168 168 167 165 164 169 176 190 201 211 229 243 249 253 251 243 232 226 221 218 221 227 230 228 227 224 207 196 189 181 183
161 159 159 161 162 162 163 164 165 174 212 227 226 239 233 238 240 232 220 218 215 220 224 228 224 221 215 204 206 208 197 190
154 155 156 157 157 159 161 170 178 213 239 224 238 229 236 235 236 232 217 211 208 212 225 220 221 218 207 194 190 220 255 168